Location: Aalen
(48.8330°N, 10.1000°E)
Time: 07:09:48
(UTC+02:00)

M-CUBED/EXP-1 PRIME - Pass Details

Date: 28 September 2021
Orbit: 427 x 655 km, 101.7° (Epoch: 26 October)

Event Time Altitude Azimuth Distance (km) Brightness Sun altitude
Rises 05:42:19 0° 26° (NNE) 2,415 ? -15.9°
Reaches altitude 10° 05:44:26 10° 36° (NE) 1,535 ? -15.6°
Maximum altitude 05:47:28 36° 105° (ESE) 697 ? -15.1°
Drops below altitude 10° 05:50:29 10° 174° (S) 1,534 ? -14.6°
Sets 05:52:36 0° 183° (S) 2,413 ? -14.3°
